This is the latest recevied weather packets stored in our database for station/object WB7AAV. If no packets are shown the sender has not sent any weather packets the latest 10 day(s).
| Time | Temp. | Humidity | Pressure | Rain* | Wind** | Luminosity | Snow |
|---|---|---|---|---|---|---|---|
| 1777497583 | 8.33° C | 69% | 1018.4 hPa | 0 mm | - | - | - |
| 1777497464 | 9.44° C | 66% | 1018.3 hPa | 0 mm | - | - | - |
| 1777497343 | 10.56° C | 58% | 1018.3 hPa | 0 mm | - | - | - |
| 1777497223 | 11.11° C | 59% | 1018.2 hPa | 0 mm | - | - | - |
| 1777497103 | 11.11° C | 62% | 1018.1 hPa | 0 mm | - | - | - |
| 1777496979 | 11.11° C | 62% | 1018.1 hPa | 0 mm | - | - | - |
| 1777496856 | 11.11° C | 62% | 1018.1 hPa | 0 mm | - | - | - |
| 1777496738 | 11.11° C | 65% | 1018.2 hPa | 0 mm | - | - | - |
| 1777496617 | 10.56° C | 65% | 1018.1 hPa | 0 mm | - | - | - |
| 1777496498 | 10.56° C | 65% | 1018.1 hPa | 0 mm | - | - | - |
| 1777496378 | 10.56° C | 65% | 1018.1 hPa | 0 mm | - | - | - |
| 1777496258 | 10.56° C | 68% | 1018.1 hPa | 0 mm | - | - | - |
| 1777496136 | 10° C | 67% | 1018.2 hPa | 0 mm | - | - | - |
| 1777496016 | 10° C | 73% | 1018.2 hPa | 0 mm | - | - | - |
| 1777495896 | 9.44° C | 71% | 1018.4 hPa | 0 mm | - | - | - |
| 1777495776 | 8.89° C | 73% | 1018.4 hPa | 0 mm | - | - | - |
| 1777495656 | 8.89° C | 71% | 1018.4 hPa | 0 mm | - | - | - |
| 1777495536 | 8.33° C | 72% | 1018.4 hPa | 0 mm | - | - | - |
| 1777495413 | 8.33° C | 71% | 1018.4 hPa | 0 mm | - | - | - |
| 1777495294 | 8.33° C | 72% | 1018.4 hPa | 0 mm | - | - | - |
| 1777495174 | 8.33° C | 71% | 1018.6 hPa | 0 mm | - | - | - |
| 1777495054 | 8.33° C | 71% | 1018.4 hPa | 0 mm | - | - | - |
| 1777494934 | 8.33° C | 73% | 1018.4 hPa | 0 mm | - | - | - |
| 1777494813 | 8.33° C | 72% | 1018.3 hPa | 0 mm | - | - | - |
| 1777494692 | 8.33° C | 72% | 1018.3 hPa | 0 mm | - | - | - |
* Rain latest hour (hover to see other rain measurements)
** Current wind speed in m/s (hover to see current wind gust speed)